Time,TemperatureF,DewpointF,PressureIn,WindDirection,WindDirectionDegrees,WindSpeedMPH,WindSpeedGustMPH,Humidity,HourlyPrecipIn,Conditions,Clouds,dailyrainin,SoftwareType,DateUTC
2013-03-01 00:06:00,26.4,19.0,30.19,East,92,2.0,8.0,73,0.00,,,0.00,weatherlink.com 1.10,2013-03-01 06:06:00,
2013-03-01 00:21:00,26.4,19.0,30.19,NNE,30,4.0,10.0,73,0.00,,,0.00,weatherlink.com 1.10,2013-03-01 06:21:00,
2013-03-01 00:36:00,26.4,19.0,30.20,NE,37,2.0,10.0,73,0.00,,,0.00,weatherlink.com 1.10,2013-03-01 06:36:00,
2013-03-01 00:51:00,26.1,18.0,30.20,NW,313,2.0,9.0,72,0.00,,,0.00,weatherlink.com 1.10,2013-03-01 06:51:00,
2013-03-01 01:06:00,26.0,18.0,30.20,North,355,2.0,7.0,73,0.00,,,0.00,weatherlink.com 1.10,2013-03-01 07:06:00,
2013-03-01 01:21:00,26.1,19.0,30.20,NNW,342,2.0,6.0,73,0.00,,,0.00,weatherlink.com 1.10,2013-03-01 07:21:00,
2013-03-01 01:36:00,26.1,19.0,30.20,NE,36,2.0,9.0,73,0.00,,,0.00,weatherlink.com 1.10,2013-03-01 07:36:00,
2013-03-01 01:51:00,26.0,18.0,30.20,NE,40,2.0,10.0,72,0.00,,,0.00,weatherlink.com 1.10,2013-03-01 07:51:00,
2013-03-01 02:06:00,25.9,18.0,30.20,East,84,5.0,8.0,73,0.00,,,0.00,weatherlink.com 1.10,2013-03-01 08:06:00,
2013-03-01 02:21:00,25.6,17.0,30.20,NNE,27,0.0,7.0,71,0.00,,,0.00,weatherlink.com 1.10,2013-03-01 08:21:00,
2013-03-01 02:36:00,25.3,17.0,30.20,North,5,3.0,9.0,72,0.00,,,0.00,weatherlink.com 1.10,2013-03-01 08:36:00,
2013-03-01 02:51:00,25.2,18.0,30.20,NW,304,3.0,9.0,73,0.00,,,0.00,weatherlink.com 1.10,2013-03-01 08:51:00,
2013-03-01 03:07:00,25.1,18.0,30.20,NE,35,4.0,9.0,73,0.00,,,0.00,weatherlink.com 1.10,2013-03-01 09:07:00,
2013-03-01 03:21:00,25.1,18.0,30.20,North,5,2.0,7.0,73,0.00,,,0.00,weatherlink.com 1.10,2013-03-01 09:21:00,
2013-03-01 03:36:00,25.1,18.0,30.20,NNE,22,2.0,5.0,74,0.00,,,0.00,weatherlink.com 1.10,2013-03-01 09:36:00,
2013-03-01 03:52:00,25.1,18.0,30.20,North,355,3.0,8.0,73,0.00,,,0.00,weatherlink.com 1.10,2013-03-01 09:52:00,
2013-03-01 04:07:00,25.2,18.0,30.20,NNW,348,3.0,10.0,73,0.00,,,0.00,weatherlink.com 1.10,2013-03-01 10:07:00,
2013-03-01 04:22:00,25.4,18.0,30.21,NNE,22,2.0,9.0,74,0.00,,,0.00,weatherlink.com 1.10,2013-03-01 10:22:00,
2013-03-01 04:37:00,25.3,18.0,30.21,NNE,14,3.0,7.0,73,0.00,,,0.00,weatherlink.com 1.10,2013-03-01 10:37:00,
2013-03-01 04:52:00,25.6,18.0,30.21,NNW,342,2.0,10.0,74,0.00,,,0.00,weatherlink.com 1.10,2013-03-01 10:52:00,
2013-03-01 05:07:00,25.6,18.0,30.21,East,82,5.0,9.0,74,0.00,,,0.00,weatherlink.com 1.10,2013-03-01 11:07:00,
2013-03-01 05:22:00,25.7,19.0,30.21,NNW,344,8.0,12.0,75,0.00,,,0.00,weatherlink.com 1.10,2013-03-01 11:22:00,
2013-03-01 05:36:00,25.8,19.0,30.22,East,82,5.0,10.0,74,0.00,,,0.00,weatherlink.com 1.10,2013-03-01 11:36:00,
2013-03-01 05:52:00,25.8,19.0,30.23,WNW,294,2.0,11.0,74,0.00,,,0.00,weatherlink.com 1.10,2013-03-01 11:52:00,
2013-03-01 06:07:00,25.7,18.0,30.23,NNW,344,6.0,9.0,74,0.00,,,0.00,weatherlink.com 1.10,2013-03-01 12:07:00,
2013-03-01 06:22:00,25.8,19.0,30.23,SW,219,2.0,11.0,75,0.00,,,0.00,weatherlink.com 1.10,2013-03-01 12:22:00,
2013-03-01 06:37:00,25.6,18.0,30.24,West,281,4.0,13.0,74,0.00,,,0.00,weatherlink.com 1.10,2013-03-01 12:37:00,
2013-03-01 06:52:00,25.7,18.0,30.24,NE,41,1.0,8.0,74,0.00,,,0.00,weatherlink.com 1.10,2013-03-01 12:52:00,
2013-03-01 07:07:00,25.5,18.0,30.25,NNE,22,4.0,11.0,73,0.00,,,0.00,weatherlink.com 1.10,2013-03-01 13:07:00,
2013-03-01 07:22:00,25.2,18.0,30.26,NW,319,8.0,12.0,75,0.00,,,0.00,weatherlink.com 1.10,2013-03-01 13:22:00,
2013-03-01 07:37:00,25.1,18.0,30.26,NNE,15,4.0,11.0,75,0.00,,,0.00,weatherlink.com 1.10,2013-03-01 13:37:00,
2013-03-01 07:52:00,25.3,18.0,30.27,East,98,3.0,13.0,75,0.00,,,0.00,weatherlink.com 1.10,2013-03-01 13:52:00,
2013-03-01 08:07:00,25.3,18.0,30.27,ENE,78,2.0,10.0,75,0.00,,,0.00,weatherlink.com 1.10,2013-03-01 14:07:00,
2013-03-01 08:22:00,25.4,18.0,30.27,NE,55,2.0,12.0,73,0.00,,,0.00,weatherlink.com 1.10,2013-03-01 14:22:00,
2013-03-01 08:37:00,25.5,18.0,30.27,NW,320,2.0,12.0,74,0.00,,,0.00,weatherlink.com 1.10,2013-03-01 14:37:00,
2013-03-01 08:52:00,25.6,18.0,30.27,West,277,3.0,12.0,73,0.00,,,0.00,weatherlink.com 1.10,2013-03-01 14:52:00,
2013-03-01 09:07:00,25.1,17.0,30.27,North,355,3.0,11.0,71,0.00,,,0.00,weatherlink.com 1.10,2013-03-01 15:07:00,
2013-03-01 09:22:00,25.1,17.0,30.28,North,360,1.0,15.0,71,0.00,,,0.00,weatherlink.com 1.10,2013-03-01 15:22:00,
2013-03-01 09:37:00,25.5,17.0,30.28,North,5,4.0,12.0,70,0.00,,,0.00,weatherlink.com 1.10,2013-03-01 15:37:00,
2013-03-01 09:52:00,25.8,18.0,30.28,NNE,26,5.0,13.0,72,0.00,,,0.00,weatherlink.com 1.10,2013-03-01 15:52:00,
2013-03-01 10:07:00,26.1,18.0,30.28,East,89,2.0,16.0,71,0.00,,,0.00,weatherlink.com 1.10,2013-03-01 16:07:00,
2013-03-01 10:22:00,26.5,18.0,30.28,NW,323,5.0,9.0,71,0.00,,,0.00,weatherlink.com 1.10,2013-03-01 16:22:00,
2013-03-01 10:37:00,26.2,17.0,30.29,ENE,61,4.0,11.0,68,0.00,,,0.00,weatherlink.com 1.10,2013-03-01 16:37:00,
2013-03-01 10:52:00,26.8,17.0,30.29,NNE,18,4.0,12.0,67,0.00,,,0.00,weatherlink.com 1.10,2013-03-01 16:52:00,
2013-03-01 11:07:00,26.9,17.0,30.29,NNE,26,3.0,9.0,66,0.00,,,0.00,weatherlink.com 1.10,2013-03-01 17:07:00,
2013-03-01 11:23:00,27.7,17.0,30.29,NNE,28,3.0,15.0,64,0.00,,,0.00,weatherlink.com 1.10,2013-03-01 17:23:00,
2013-03-01 11:38:00,27.5,17.0,30.29,SSW,198,3.0,13.0,65,0.00,,,0.00,weatherlink.com 1.10,2013-03-01 17:38:00,
2013-03-01 11:53:00,27.5,17.0,30.29,NE,41,8.0,15.0,65,0.00,,,0.00,weatherlink.com 1.10,2013-03-01 17:53:00,
2013-03-01 12:08:00,27.7,17.0,30.29,West,269,9.0,17.0,64,0.00,,,0.00,weatherlink.com 1.10,2013-03-01 18:08:00,
2013-03-01 12:23:00,28.1,18.0,30.28,North,355,6.0,15.0,65,0.00,,,0.00,weatherlink.com 1.10,2013-03-01 18:23:00,
2013-03-01 12:38:00,29.2,17.0,30.28,North,5,5.0,12.0,61,0.00,,,0.00,weatherlink.com 1.10,2013-03-01 18:38:00,
2013-03-01 12:53:00,29.3,17.0,30.27,West,265,3.0,12.0,61,0.00,,,0.00,weatherlink.com 1.10,2013-03-01 18:53:00,
2013-03-01 13:08:00,29.7,18.0,30.27,NNE,22,3.0,9.0,61,0.00,,,0.00,weatherlink.com 1.10,2013-03-01 19:08:00,
2013-03-01 13:23:00,30.5,17.0,30.26,ENE,62,7.0,17.0,58,0.00,,,0.00,weatherlink.com 1.10,2013-03-01 19:23:00,
2013-03-01 13:38:00,28.9,16.0,30.26,NNW,329,14.0,17.0,59,0.00,,,0.00,weatherlink.com 1.10,2013-03-01 19:38:00,
2013-03-01 13:53:00,30.2,17.0,30.25,NNW,338,5.0,11.0,59,0.00,,,0.00,weatherlink.com 1.10,2013-03-01 19:53:00,
2013-03-01 14:08:00,30.3,17.0,30.25,North,350,14.0,15.0,58,0.00,,,0.00,weatherlink.com 1.10,2013-03-01 20:08:00,
2013-03-01 14:22:00,30.9,18.0,30.25,West,259,4.0,16.0,58,0.00,,,0.00,weatherlink.com 1.10,2013-03-01 20:22:00,
2013-03-01 14:38:00,31.2,17.0,30.24,North,355,10.0,14.0,57,0.00,,,0.00,weatherlink.com 1.10,2013-03-01 20:38:00,
2013-03-01 14:53:00,31.9,18.0,30.25,North,350,10.0,19.0,56,0.00,,,0.00,weatherlink.com 1.10,2013-03-01 20:53:00,
2013-03-01 15:08:00,32.0,17.0,30.25,NW,318,8.0,13.0,54,0.00,,,0.00,weatherlink.com 1.10,2013-03-01 21:08:00,
2013-03-01 15:23:00,32.6,17.0,30.24,ENE,59,2.0,14.0,54,0.00,,,0.00,weatherlink.com 1.10,2013-03-01 21:23:00,
2013-03-01 15:38:00,33.5,17.0,30.24,SW,232,3.0,12.0,52,0.00,,,0.00,weatherlink.com 1.10,2013-03-01 21:38:00,
2013-03-01 15:53:00,33.7,18.0,30.24,North,5,9.0,14.0,52,0.00,,,0.00,weatherlink.com 1.10,2013-03-01 21:53:00,
2013-03-01 16:08:00,33.3,17.0,30.25,NNW,347,1.0,13.0,52,0.00,,,0.00,weatherlink.com 1.10,2013-03-01 22:08:00,
2013-03-01 16:23:00,32.7,16.0,30.25,North,355,5.0,16.0,51,0.00,,,0.00,weatherlink.com 1.10,2013-03-01 22:23:00,
2013-03-01 16:38:00,31.9,16.0,30.25,NNW,341,8.0,13.0,52,0.00,,,0.00,weatherlink.com 1.10,2013-03-01 22:38:00,
2013-03-01 16:53:00,32.1,16.0,30.25,ENE,57,1.0,11.0,52,0.00,,,0.00,weatherlink.com 1.10,2013-03-01 22:53:00,
2013-03-01 17:08:00,31.3,16.0,30.26,NW,309,5.0,11.0,54,0.00,,,0.00,weatherlink.com 1.10,2013-03-01 23:08:00,
2013-03-01 17:23:00,30.6,16.0,30.26,NW,317,7.0,12.0,55,0.00,,,0.00,weatherlink.com 1.10,2013-03-01 23:23:00,
2013-03-01 17:38:00,30.0,16.0,30.26,NNW,336,6.0,10.0,57,0.00,,,0.00,weatherlink.com 1.10,2013-03-01 23:38:00,
2013-03-01 17:53:00,29.6,16.0,30.26,North,350,5.0,10.0,57,0.00,,,0.00,weatherlink.com 1.10,2013-03-01 23:53:00,
2013-03-01 18:08:00,29.1,16.0,30.27,NNW,339,4.0,10.0,58,0.00,,,0.00,weatherlink.com 1.10,2013-03-02 00:08:00,
2013-03-01 18:23:00,28.6,16.0,30.27,NNE,15,4.0,9.0,59,0.00,,,0.00,weatherlink.com 1.10,2013-03-02 00:23:00,
2013-03-01 18:38:00,28.2,16.0,30.27,North,355,4.0,9.0,60,0.00,,,0.00,weatherlink.com 1.10,2013-03-02 00:38:00,
2013-03-01 18:53:00,27.9,16.0,30.27,North,10,2.0,9.0,60,0.00,,,0.00,weatherlink.com 1.10,2013-03-02 00:53:00,
2013-03-01 19:08:00,27.5,16.0,30.27,NNW,329,7.0,8.0,61,0.00,,,0.00,weatherlink.com 1.10,2013-03-02 01:08:00,
2013-03-01 19:23:00,27.2,15.0,30.28,NNE,15,6.0,10.0,60,0.00,,,0.00,weatherlink.com 1.10,2013-03-02 01:23:00,
2013-03-01 19:38:00,26.8,15.0,30.28,NNW,336,6.0,8.0,61,0.00,,,0.00,weatherlink.com 1.10,2013-03-02 01:38:00,
2013-03-01 19:53:00,26.3,14.0,30.28,NNW,344,6.0,8.0,61,0.00,,,0.00,weatherlink.com 1.10,2013-03-02 01:53:00,
2013-03-01 20:08:00,25.9,15.0,30.28,NNE,22,4.0,8.0,64,0.00,,,0.00,weatherlink.com 1.10,2013-03-02 02:08:00,
2013-03-01 20:23:00,25.5,14.0,30.28,North,5,3.0,7.0,63,0.00,,,0.00,weatherlink.com 1.10,2013-03-02 02:23:00,
2013-03-01 20:38:00,25.2,14.0,30.28,North,9,3.0,8.0,62,0.00,,,0.00,weatherlink.com 1.10,2013-03-02 02:38:00,
2013-03-01 20:53:00,25.0,13.0,30.29,NNE,20,5.0,10.0,61,0.00,,,0.00,weatherlink.com 1.10,2013-03-02 02:53:00,
2013-03-01 21:08:00,24.5,13.0,30.29,North,360,1.0,6.0,63,0.00,,,0.00,weatherlink.com 1.10,2013-03-02 03:08:00,
2013-03-01 21:23:00,23.8,14.0,30.29,NNE,19,2.0,4.0,66,0.00,,,0.00,weatherlink.com 1.10,2013-03-02 03:23:00,
2013-03-01 21:38:00,23.4,14.0,30.29,North,9,1.0,4.0,67,0.00,,,0.00,weatherlink.com 1.10,2013-03-02 03:38:00,
2013-03-01 21:53:00,23.2,12.0,30.29,NNW,329,5.0,6.0,63,0.00,,,0.00,weatherlink.com 1.10,2013-03-02 03:53:00,
2013-03-01 22:08:00,23.0,12.0,30.29,North,355,2.0,5.0,63,0.00,,,0.00,weatherlink.com 1.10,2013-03-02 04:08:00,
2013-03-01 22:23:00,22.7,12.0,30.29,NNE,12,4.0,8.0,64,0.00,,,0.00,weatherlink.com 1.10,2013-03-02 04:23:00,
2013-03-01 22:38:00,22.4,13.0,30.29,West,267,3.0,7.0,66,0.00,,,0.00,weatherlink.com 1.10,2013-03-02 04:38:00,
2013-03-01 22:53:00,23.6,14.0,30.29,West,273,1.0,12.0,67,0.00,,,0.00,weatherlink.com 1.10,2013-03-02 04:53:00,
2013-03-01 23:08:00,23.3,13.0,30.29,NNE,16,4.0,5.0,66,0.00,,,0.00,weatherlink.com 1.10,2013-03-02 05:08:00,
2013-03-01 23:23:00,23.0,13.0,30.29,East,82,1.0,12.0,66,0.00,,,0.00,weatherlink.com 1.10,2013-03-02 05:23:00,
2013-03-01 23:38:00,22.7,13.0,30.30,North,355,3.0,10.0,65,0.00,,,0.00,weatherlink.com 1.10,2013-03-02 05:38:00,
2013-03-01 23:53:00,22.1,12.0,30.30,NNE,31,2.0,9.0,65,0.00,,,0.00,weatherlink.com 1.10,2013-03-02 05:53:00,